TimeCDT,TemperatureF,Dew PointF,Humidity,Sea Level PressureIn,VisibilityMPH,Wind Direction,Wind SpeedMPH,Gust SpeedMPH,PrecipitationIn,Events,Conditions,WindDirDegrees,DateUTC
12:54 AM,78.1,68.0,71,30.01,10.0,SSW,8.1,-,N/A,,Clear,200,2013-08-22 05:54:00
1:54 AM,75.9,68.0,76,30.02,10.0,SSW,5.8,-,N/A,,Clear,200,2013-08-22 06:54:00
2:54 AM,75.0,66.9,76,30.02,10.0,South,6.9,-,N/A,,Clear,190,2013-08-22 07:54:00
3:54 AM,75.9,66.9,74,30.01,10.0,SSW,6.9,-,N/A,,Clear,200,2013-08-22 08:54:00
4:54 AM,75.9,66.0,71,30.03,10.0,SW,3.5,-,N/A,,Clear,220,2013-08-22 09:54:00
5:54 AM,75.9,64.9,69,30.03,10.0,SSW,4.6,-,N/A,,Clear,210,2013-08-22 10:54:00
6:54 AM,75.9,64.9,69,30.07,10.0,Calm,Calm,-,N/A,,Clear,0,2013-08-22 11:54:00
7:54 AM,75.9,66.0,71,30.07,10.0,SSW,5.8,-,N/A,,Clear,210,2013-08-22 12:54:00
8:54 AM,79.0,66.9,66,30.07,10.0,WNW,4.6,-,N/A,,Clear,290,2013-08-22 13:54:00
9:54 AM,80.1,66.0,62,30.06,10.0,West,4.6,-,N/A,,Clear,260,2013-08-22 14:54:00
10:54 AM,82.0,68.0,62,30.06,10.0,Calm,Calm,-,N/A,,Clear,0,2013-08-22 15:54:00
11:54 AM,87.1,66.0,49,30.05,10.0,SW,6.9,-,N/A,,Clear,220,2013-08-22 16:54:00
12:54 PM,87.1,66.0,49,30.04,10.0,South,5.8,-,N/A,,Clear,190,2013-08-22 17:54:00
1:54 PM,88.0,66.0,48,30.03,10.0,SSW,5.8,-,N/A,,Clear,200,2013-08-22 18:54:00
2:54 PM,90.0,64.9,43,30.03,10.0,South,3.5,-,N/A,,Clear,190,2013-08-22 19:54:00
3:54 PM,90.0,66.0,45,30.01,10.0,SW,3.5,-,N/A,,Clear,230,2013-08-22 20:54:00
4:54 PM,91.0,66.9,45,30.00,10.0,SSE,5.8,-,N/A,,Clear,160,2013-08-22 21:54:00
5:54 PM,90.0,66.9,46,29.99,10.0,SSW,5.8,-,N/A,,Clear,200,2013-08-22 22:54:00
6:54 PM,87.1,68.0,53,29.99,10.0,South,5.8,-,N/A,,Clear,180,2013-08-22 23:54:00
7:54 PM,84.9,68.0,57,29.99,10.0,South,3.5,-,N/A,,Clear,190,2013-08-23 00:54:00
8:54 PM,82.9,69.1,63,29.99,10.0,South,3.5,-,N/A,,Clear,170,2013-08-23 01:54:00
9:54 PM,81.0,69.1,67,30.01,10.0,South,4.6,-,N/A,,Clear,180,2013-08-23 02:54:00
10:54 PM,81.0,70.0,69,30.02,10.0,Calm,Calm,-,N/A,,Clear,0,2013-08-23 03:54:00
11:54 PM,80.1,69.1,69,30.02,10.0,SW,3.5,-,N/A,,Clear,220,2013-08-23 04:54:00